Flag for Brazil Weather past 2 weeks in Campinas, São Paulo, Brazil

Now
79 °F

Thundershowers. Passing clouds.


Feels Like: 81 °F
Forecast: N/A
Wind: 6 mph from Northwest

Location: Campinas Aeroporto

Current Time: Feb 27, 2015 at 8:02:48 PM

Latest Report: Feb 27, 2015 at 7:00 PM


Visibility: N/A

Pressure: 29.89 "Hg

Humidity: 61%

Dew point: 64 °F

Location of CampinasLocation

Historic Weather in Campinas — Graph

°F

Campinas temperature yesterday

Maximum temperature yesterday: 86 °F (at 4:00 PM)
Minimum temperature yesterday: 68 °F (at 12:00 AM)
Average temperature yesterday: 76 °F

Past Weeks' High & Low Weather Summary

 TemperatureHumidityPressure
High90 °F (Feb 14, 2:00 PM)100% (Feb 15, 9:00 PM)30.18 "Hg (Feb 15, 9:00 PM)
Low37 °F (Feb 19, 5:00 PM)33% (Feb 23, 3:00 PM)29.86 "Hg (Feb 27, 4:00 PM)
Average76 °F74%30.03 "Hg
* Reported Feb 12 8:00 PM — Feb 27 7:00 PM, Campinas, Weather by CustomWeather, © 2015

Note: Actual official high and low records may vary slightly from our data, if they occured in-between our weather recording intervals... More about our weather records

Advertising

Campinas weather history for previous 24 hours

 ConditionsComfort  
Time TempWeatherWind HumidityBarometerVisibility
7:00 PM
Fri, Feb 27
79 °FThundershowers. Passing clouds.6 mph61%29.89 "HgN/A
6:00 PM81 °FPassing clouds.8 mph58%29.86 "HgN/A
5:00 PM84 °FPassing clouds.12 mph51%29.86 "HgN/A
4:00 PM82 °FScattered clouds.15 mph58%29.86 "HgN/A
3:00 PM88 °FScattered clouds.9 mph46%29.89 "HgN/A
2:00 PM86 °FScattered clouds.9 mph49%29.92 "HgN/A
1:00 PM86 °FScattered clouds.10 mph49%29.95 "HgN/A
12:00 PM82 °FScattered clouds.6 mph62%29.98 "HgN/A
11:00 AM81 °FScattered clouds.8 mph62%30.01 "HgN/A
10:00 AM79 °FClear.5 mph70%30.01 "Hg5 mi
9:00 AM77 °FClear.5 mph69%30.01 "Hg5 mi
8:00 AM73 °FClear.3 mph78%29.98 "Hg4 mi
7:00 AM72 °FClear.2 mph83%29.98 "Hg4 mi
6:00 AM68 °FSunny.5 mph94%29.98 "Hg10 mi
5:00 AM70 °FClear.No wind83%29.98 "Hg10 mi
4:00 AM72 °FClear.6 mph78%29.95 "Hg10 mi
3:00 AM70 °FClear.6 mph83%29.95 "Hg10 mi
2:00 AM72 °FClear.7 mph78%29.95 "Hg10 mi
1:00 AM72 °FClear.8 mph78%29.95 "Hg10 mi
12:00 AM73 °FClear.9 mph74%29.98 "Hg10 mi
11:00 PM
Thu, Feb 26
75 °FClear.9 mph69%29.98 "Hg10 mi
10:00 PM75 °FThundershowers. Passing clouds.8 mph69%29.95 "HgN/A
9:00 PM77 °FThundershowers. Passing clouds.8 mph69%29.95 "HgN/A
8:00 PM81 °FPassing clouds.5 mph58%29.92 "HgN/A
Weather by CustomWeather, © 2015

See weather overviewHow to use our weather pages